When you browse on this site, cookies collect data to enhance your experience and personalize the content and advertising you see.
Visit our Privacy Policy to learn more. By continuing to use the site, you agree to this use of cookies and data.
  • In Österreich
  • Länderverzeichnis
  • Für 7 Tage
  • Wassertemperatur
  • Satellitenkarten
  • Wetterkarte
  • News
  • Widgets
  • user-avatar
    Anmelden

    Stündliche Wetter Gasni

    Heute, 26 Juni, Mittwoch

    Zeit Temperatur Niederschläge Wind Luftdruck Luftfeuchtigkeit
    00:00 +21°C° 0 mm 3 m/S 588 mmHg 18%
    01:00 +21°C° 0 mm 3 m/S 588 mmHg 21%
    02:00 +20°C° 0 mm 3 m/S 587 mmHg 24%
    03:00 +19°C° 0 mm 3 m/S 587 mmHg 24%
    04:00 +19°C° 0 mm 2 m/S 586 mmHg 24%
    05:00 +18°C° 0 mm 2 m/S 586 mmHg 24%
    06:00 +19°C° 0 mm 2 m/S 587 mmHg 22%
    07:00 +21°C° 0 mm 2 m/S 588 mmHg 20%
    08:00 +23°C° 0 mm 2 m/S 588 mmHg 18%
    09:00 +24°C° 0 mm 2 m/S 589 mmHg 16%
    10:00 +26°C° 0 mm 2 m/S 589 mmHg 14%
    11:00 +27°C° 0 mm 1 m/S 589 mmHg 12%
    12:00 +28°C° 0 mm 2 m/S 589 mmHg 11%
    13:00 +29°C° 0 mm 3 m/S 589 mmHg 10%
    14:00 +30°C° 0 mm 4 m/S 589 mmHg 9%
    15:00 +32°C° 0 mm 5 m/S 589 mmHg 9%
    16:00 +32°C° 0 mm 5 m/S 589 mmHg 8%
    17:00 +33°C° 0 mm 6 m/S 589 mmHg 8%
    18:00 +30°C° 0 mm 5 m/S 588 mmHg 9%
    19:00 +29°C° 0 mm 5 m/S 588 mmHg 10%
    20:00 +28°C° 0 mm 4 m/S 588 mmHg 11%
    21:00 +27°C° 0 mm 4 m/S 588 mmHg 12%
    22:00 +26°C° 0 mm 4 m/S 587 mmHg 13%
    23:00 +25°C° 0 mm 3 m/S 587 mmHg 13%

    Morgen, 27 Juni, Donnerstag

    Zeit Temperatur Niederschläge Wind Luftdruck Luftfeuchtigkeit
    00:00 +24°C° 0 mm 3 m/S 586 mmHg 16%
    01:00 +22°C° 0 mm 3 m/S 586 mmHg 19%
    02:00 +21°C° 0 mm 3 m/S 585 mmHg 21%
    03:00 +20°C° 0 mm 3 m/S 585 mmHg 22%
    04:00 +20°C° 0 mm 3 m/S 585 mmHg 23%
    05:00 +19°C° 0 mm 3 m/S 584 mmHg 24%
    06:00 +20°C° 0 mm 3 m/S 585 mmHg 22%
    07:00 +21°C° 0 mm 3 m/S 586 mmHg 20%
    08:00 +24°C° 0 mm 3 m/S 586 mmHg 18%
    09:00 +25°C° 0 mm 3 m/S 587 mmHg 17%
    10:00 +26°C° 0 mm 3 m/S 587 mmHg 16%
    11:00 +27°C° 0 mm 2 m/S 587 mmHg 15%
    12:00 +28°C° 0 mm 3 m/S 587 mmHg 13%
    13:00 +29°C° 0 mm 3 m/S 587 mmHg 12%
    14:00 +30°C° 0 mm 3 m/S 587 mmHg 10%
    15:00 +30°C° 0 mm 3 m/S 587 mmHg 10%
    16:00 +31°C° 0 mm 3 m/S 587 mmHg 9%
    17:00 +32°C° 0 mm 4 m/S 586 mmHg 9%
    18:00 +30°C° 0 mm 3 m/S 586 mmHg 10%
    19:00 +29°C° 0 mm 3 m/S 586 mmHg 11%
    20:00 +28°C° 0 mm 2 m/S 586 mmHg 12%
    21:00 +26°C° 0 mm 3 m/S 586 mmHg 13%
    22:00 +25°C° 0 mm 4 m/S 585 mmHg 15%
    23:00 +23°C° 0 mm 4 m/S 585 mmHg 16%

    übermorgen, 28 Juni, Freitag

    Zeit Temperatur Niederschläge Wind Luftdruck Luftfeuchtigkeit
    00:00 +22°C° 0 mm 4 m/S 585 mmHg 16%
    01:00 +21°C° 0 mm 4 m/S 585 mmHg 16%
    02:00 +21°C° 0 mm 3 m/S 584 mmHg 16%
    03:00 +20°C° 0 mm 3 m/S 584 mmHg 17%
    04:00 +20°C° 0 mm 3 m/S 584 mmHg 18%
    05:00 +19°C° 0 mm 3 m/S 584 mmHg 19%
    06:00 +20°C° 0 mm 3 m/S 584 mmHg 18%
    07:00 +21°C° 0 mm 3 m/S 585 mmHg 17%
    08:00 +24°C° 0 mm 3 m/S 586 mmHg 16%
    09:00 +25°C° 0 mm 3 m/S 586 mmHg 15%
    10:00 +26°C° 0 mm 3 m/S 587 mmHg 14%
    11:00 +28°C° 0 mm 3 m/S 587 mmHg 13%
    12:00 +29°C° 0 mm 2 m/S 587 mmHg 12%
    13:00 +29°C° 0 mm 2 m/S 587 mmHg 11%
    14:00 +30°C° 0 mm 2 m/S 587 mmHg 10%
    15:00 +31°C° 0 mm 2 m/S 587 mmHg 10%
    16:00 +31°C° 0 mm 3 m/S 587 mmHg 9%
    17:00 +31°C° 0 mm 3 m/S 586 mmHg 9%
    18:00 +30°C° 0 mm 3 m/S 586 mmHg 10%
    19:00 +29°C° 0 mm 2 m/S 586 mmHg 11%
    20:00 +28°C° 0 mm 2 m/S 586 mmHg 12%
    21:00 +27°C° 0 mm 2 m/S 586 mmHg 15%
    22:00 +26°C° 0 mm 3 m/S 586 mmHg 17%
    23:00 +25°C° 0 mm 3 m/S 586 mmHg 20%

    29 Juni, Samstag

    Zeit Temperatur Niederschläge Wind Luftdruck Luftfeuchtigkeit
    00:00 +24°C° 0 mm 3 m/S 586 mmHg 20%
    01:00 +24°C° 0 mm 3 m/S 585 mmHg 19%
    02:00 +23°C° 0 mm 2 m/S 585 mmHg 18%
    03:00 +21°C° 0 mm 2 m/S 585 mmHg 19%
    04:00 +21°C° 0 mm 2 m/S 584 mmHg 20%
    05:00 +20°C° 0 mm 2 m/S 584 mmHg 21%
    06:00 +21°C° 0 mm 2 m/S 585 mmHg 19%
    07:00 +24°C° 0 mm 2 m/S 586 mmHg 17%
    08:00 +25°C° 0 mm 2 m/S 587 mmHg 16%
    09:00 +27°C° 0 mm 2 m/S 587 mmHg 16%
    10:00 +28°C° 0 mm 1 m/S 587 mmHg 16%
    11:00 +29°C° 0 mm 1 m/S 587 mmHg 16%
    12:00 +30°C° 0 mm 2 m/S 587 mmHg 14%
    13:00 +31°C° 0 mm 3 m/S 587 mmHg 12%
    14:00 +33°C° 0 mm 4 m/S 587 mmHg 10%
    15:00 +33°C° 0 mm 5 m/S 587 mmHg 10%
    16:00 +34°C° 0 mm 5 m/S 587 mmHg 9%
    17:00 +34°C° 0 mm 6 m/S 587 mmHg 8%
    18:00 +33°C° 0 mm 6 m/S 587 mmHg 9%
    19:00 +32°C° 0 mm 5 m/S 587 mmHg 10%
    20:00 +30°C° 0 mm 5 m/S 586 mmHg 11%
    21:00 +28°C° 0 mm 5 m/S 586 mmHg 13%
    22:00 +27°C° 0 mm 5 m/S 586 mmHg 16%
    23:00 +26°C° 0 mm 5 m/S 586 mmHg 19%

    30 Juni, Sonntag

    Zeit Temperatur Niederschläge Wind Luftdruck Luftfeuchtigkeit
    00:00 +25°C° 0 mm 4 m/S 585 mmHg 21%
    01:00 +23°C° 0 mm 4 m/S 585 mmHg 24%
    02:00 +22°C° 0 mm 3 m/S 584 mmHg 26%
    03:00 +22°C° 0 mm 3 m/S 584 mmHg 27%
    04:00 +22°C° 0 mm 3 m/S 584 mmHg 28%
    05:00 +21°C° 0 mm 3 m/S 584 mmHg 29%
    06:00 +22°C° 0 mm 3 m/S 585 mmHg 27%
    07:00 +25°C° 0 mm 3 m/S 586 mmHg 25%
    08:00 +26°C° 0 mm 3 m/S 586 mmHg 23%
    09:00 +27°C° 0 mm 3 m/S 587 mmHg 21%
    10:00 +28°C° 0 mm 2 m/S 587 mmHg 20%
    11:00 +30°C° 0 mm 2 m/S 587 mmHg 18%
    12:00 +31°C° 0 mm 2 m/S 587 mmHg 16%
    13:00 +32°C° 0 mm 2 m/S 587 mmHg 14%
    14:00 +32°C° 0 mm 2 m/S 587 mmHg 11%
    15:00 +34°C° 0 mm 2 m/S 587 mmHg 11%
    16:00 +34°C° 0 mm 2 m/S 587 mmHg 11%
    17:00 +34°C° 0 mm 2 m/S 587 mmHg 11%
    18:00 +32°C° 0 mm 2 m/S 587 mmHg 12%
    19:00 +31°C° 0 mm 2 m/S 587 mmHg 12%
    20:00 +30°C° 0 mm 2 m/S 587 mmHg 13%
    21:00 +29°C° 0 mm 3 m/S 587 mmHg 15%
    22:00 +28°C° 0 mm 3 m/S 587 mmHg 17%
    23:00 +27°C° 0 mm 4 m/S 587 mmHg 19%

    1 Juli, Montag

    Zeit Temperatur Niederschläge Wind Luftdruck Luftfeuchtigkeit
    00:00 +26°C° 0 mm 3 m/S 586 mmHg 20%
    01:00 +25°C° 0 mm 3 m/S 586 mmHg 21%
    02:00 +25°C° 0 mm 2 m/S 585 mmHg 21%
    03:00 +24°C° 0 mm 2 m/S 585 mmHg 22%
    04:00 +24°C° 0 mm 2 m/S 585 mmHg 22%
    05:00 +22°C° 0 mm 3 m/S 585 mmHg 23%
    06:00 +24°C° 0 mm 3 m/S 586 mmHg 21%
    07:00 +26°C° 0 mm 3 m/S 587 mmHg 20%
    08:00 +27°C° 0 mm 3 m/S 588 mmHg 18%
    09:00 +29°C° 0 mm 3 m/S 588 mmHg 15%
    10:00 +30°C° 0 mm 3 m/S 588 mmHg 12%
    11:00 +33°C° 0 mm 3 m/S 589 mmHg 9%
    12:00 +34°C° 0 mm 3 m/S 589 mmHg 8%
    13:00 +35°C° 0 mm 3 m/S 589 mmHg 6%
    14:00 +36°C° 0 mm 3 m/S 589 mmHg 5%
    15:00 +36°C° 0 mm 4 m/S 588 mmHg 5%
    16:00 +36°C° 0 mm 5 m/S 588 mmHg 4%
    17:00 +36°C° 0 mm 6 m/S 588 mmHg 4%
    18:00 +34°C° 0 mm 7 m/S 588 mmHg 6%
    19:00 +33°C° 0 mm 8 m/S 587 mmHg 8%
    20:00 +31°C° 0 mm 8 m/S 587 mmHg 9%
    21:00 +29°C° 0 mm 8 m/S 587 mmHg 11%
    22:00 +28°C° 0 mm 7 m/S 587 mmHg 12%
    23:00 +26°C° 0 mm 6 m/S 587 mmHg 13%
    Mehr zeigen